Notices

What's New in latest Release from April 7th, 2021:

- Updated Glossary, including Speed of Maximum Gust, and Total Hourly Precipitation

- Updated national and regional climate services offices contacts and prices information

- Addition of station inventory lists for 1981-2010, 1971-2000, and 1961-1990 Normals.

If you haven't already, please take our survey and provide feedback about our website: https://eccc.sondage-survey.ca/f/LanguageSelection.aspx?s=442ca660-fcf1-47c0-95a9-59707d6fd709

Hourly Data Report for August 23, 2003

TORONTO CITY
ONTARIO

43°40'00.000" N
79°24'00.000" W
112.50 m
6158355
71508
XTO

Download Data

Hourly Data (August 2003)
Hourly Data Report for August 23, 2003
TIME
LST
Temp Definition
°C
Dew Point Definition
°C
Rel Hum Definition
%
Precip. Amount Definition
mm

Wind Dir Definition
10's deg

Wind Spd Definition
km/h
Visibility Definition
km
Stn Press Definition
kPa
Hmdx Definition


Wind Chill Definition


Weather Definition


00:00 20.2 13.4 65   LegendMM LegendMM LegendMM 100.01     LegendNANA
01:00 19.8 13.3 66   LegendMM LegendMM LegendMM 100.01     LegendNANA
02:00 19.4 13.3 68   LegendMM LegendMM LegendMM 100.01     LegendNANA
03:00 19.1 13.5 70   LegendMM LegendMM LegendMM 100.05     LegendNANA
04:00 18.8 13.0 69   LegendMM LegendMM LegendMM 100.13     LegendNANA
05:00 18.2 11.7 66   LegendMM LegendMM LegendMM 100.18     LegendNANA
06:00 17.6 9.4 59   LegendMM LegendMM LegendMM 100.29     LegendNANA
07:00 17.6 7.0 50   LegendMM LegendMM LegendMM 100.39     LegendNANA
08:00 18.2 6.8 47   LegendMM LegendMM LegendMM 100.46     LegendNANA
09:00 19.6 4.3 36   LegendMM LegendMM LegendMM 100.50     LegendNANA
10:00 21.2 4.3 33   LegendMM LegendMM LegendMM 100.54     LegendNANA
11:00 22.5 2.4 27   LegendMM LegendMM LegendMM 100.53     LegendNANA
12:00 23.8 6.0 32   LegendMM LegendMM LegendMM 100.53     LegendNANA
13:00 23.7 4.4 29   LegendMM LegendMM LegendMM 100.51     LegendNANA
14:00 23.5 0.1 21   LegendMM LegendMM LegendMM 100.48     LegendNANA
15:00 24.0 -0.5 20   LegendMM LegendMM LegendMM 100.44     LegendNANA
16:00 23.7 3.6 27   LegendMM LegendMM LegendMM 100.44     LegendNANA
17:00 22.4 4.8 32   LegendMM LegendMM LegendMM 100.43     LegendNANA
18:00 21.1 4.8 34   LegendMM LegendMM LegendMM 100.46     LegendNANA
19:00 19.9 4.0 35   LegendMM LegendMM LegendMM 100.51     LegendNANA
20:00 19.0 4.6 39   LegendMM LegendMM LegendMM 100.53     LegendNANA
21:00 18.6 4.9 40   LegendMM LegendMM LegendMM 100.56     LegendNANA
22:00 17.9 5.7 45   LegendMM LegendMM LegendMM 100.58     LegendNANA
23:00 17.1 8.5 57   LegendMM LegendMM LegendMM 100.62     LegendNANA

Notes on Data Quality.

Legend

  • E = Estimated
  • M = Missing
  • NA = Not Available*
  • [empty] = Indicates an unobserved value
Date modified: